Crystal Mt.
Crystal Mt. - Green Valley & Campbell Basin
Latest observation 09/01 16:00 PDT
| Time (PDT) | Temp °F 6230' | Temp °F 5940' | RH 6230' | 24Sno in 6230' | SnoHt in 6230' | 24Sno in 5940' | SnoHt in 5940' |
|---|---|---|---|---|---|---|---|
| 09/01 16:00 | – | 48 | – | – | – | 0.2 | 1.8 |
| 09/01 15:00 | – | 54 | – | – | – | -0.0 | 2.1 |
| 09/01 14:00 | – | 56 | – | – | – | 0.0 | 2.3 |
| 09/01 13:00 | – | 60 | – | – | – | 0.0 | 2.1 |
| 09/01 12:00 | – | 59 | – | – | – | 0.2 | 2.1 |
| 09/01 11:00 | – | 60 | – | – | – | 0.3 | 2.2 |
| 09/01 10:00 | – | 55 | – | – | – | 0.2 | 2.3 |
| 09/01 09:00 | – | 55 | – | – | – | 0.2 | 2.3 |
| 09/01 08:00 | – | 51 | – | – | – | 0.2 | 2.1 |
| 09/01 07:00 | – | 49 | – | – | – | 0.4 | 2.4 |
| 09/01 06:00 | – | 50 | – | – | – | 0.2 | 2.4 |
| 09/01 05:00 | – | 51 | – | – | – | 0.4 | 2.4 |
| 09/01 04:00 | – | 53 | – | – | – | 0.2 | 2.5 |
| 09/01 03:00 | – | 58 | – | – | – | 0.4 | 2.4 |
| 09/01 02:00 | – | 57 | – | – | – | 0.4 | 2.2 |
| 09/01 01:00 | – | 58 | – | – | – | 0.4 | 2.3 |
| 09/01 00:00 | – | 53 | – | – | – | 0.2 | 2.1 |
| 08/31 23:00 | – | 56 | – | – | – | 0.4 | 2.3 |
| 08/31 22:00 | – | 56 | – | – | – | 0.4 | 2.2 |
| 08/31 21:00 | – | 55 | – | – | – | 0.2 | 2.3 |
| 08/31 20:00 | – | 57 | – | – | – | 0.2 | 2.2 |
| 08/31 19:00 | – | 58 | – | – | – | 0.2 | 2.3 |
| 08/31 18:00 | – | 63 | – | – | – | 0.2 | 2.1 |
| 08/31 17:00 | – | 66 | – | – | – | 0.0 | 2.0 |

